Vertical_Velocity
2 -1 -1 2 -1 -3 -1 -2 -4 -3 -4 -0 -3 -2 -2 -0 1 2 2 -1 -1 1 -1 1 1 -2 -3 -2 -0 2 -0 1 -1 1 -2 2 -2 -2 -6 0 1 -15 4 -0 10 -2 19
-4 -1 -1 -2 1 1 -3 -1 -5 -3 -1 -3 -4 0 -1 2 -1 2 0 -1 -2 -0 -0 -0 0 -1 -3 -5 2 -0 2 3 -4 -1 3 2 1 -2 -2 -3 3 -2 -4 5 11 11 15
1 1 0 1 -5 -0 -1 1 -3 -3 -3 0 -6 4 -1 1 1 -0 3 -0 1 -0 1 -0 -0 -0 -2 -4 1 -0 2 -0 -5 -1 5 -6 -0 -1 5 1 8 10 -0 7 0 1 7
2 2 -2 -1 -2 -1 3 -3 -0 -3 -7 -1 -5 2 -0 -5 1 -0 2 2 2 -1 1 -0 -1 -1 -4 -1 -1 2 1 3 5 2 1 0 1 -5 -2 28 2 -3 15 -11 5 12 9
1 -2 6 -3 -1 -4 2 2 -1 -1 -2 -5 -4 2 1 -3 -1 2 -0 4 -0 1 1 1 1 -2 -2 -1 -0 -2 -4 -5 -1 1 -9 10 -1 6 7 -9 17 4 -14 -7 -1 1 13
4 1 2 1 -4 -1 -0 -0 1 -2 -2 -4 -4 1 -3 1 -3 0 0 6 0 2 -0 2 -1 -1 -1 -3 -0 -0 2 -0 -1 -1 -2 3 13 3 2 49 -13 -18 -4 1 2 -6 1
2 3 5 5 2 -1 -8 -3 -4 1 -5 -4 1 -5 -2 2 1 -3 4 4 0 1 2 4 -2 2 -2 -1 -4 -3 -2 -0 -1 0 -0 -3 1 17 -1 8 -2 5 4 -1 1 3 5
-4 -4 3 -1 2 3 6 1 -6 -3 -6 -7 -1 1 -4 2 2 -8 6 1 2 5 2 1 0 -3 -4 -3 -5 -4 -3 -1 -1 -0 -4 -2 0 -1 12 29 -2 1 2 5 4 -5 17
-2 3 1 -4 -1 1 -1 4 2 1 -3 -5 -3 -2 -4 3 6 -3 4 1 1 2 4 1 -0 -1 -5 -7 -6 -3 2 1 1 -7 -5 1 -6 -3 16 2 0 -2 1 -4 -0 2 -2
1 -1 -3 -2 3 7 5 4 1 3 -1 0 -2 -2 -1 4 -2 -2 5 2 1 1 5 -0 -3 -2 -2 -7 -8 -5 -0 -6 -7 -0 -4 -12 -0 -8 -4 -4 2 -1 2 2 2 9 18
1 15 15 12 7 6 6 10 4 1 -1 -8 -4 4 -2 7 4 1 4 4 1 1 0 1 2 -2 -5 -2 -5 -3 -3 -1 -3 -5 21 5 -1 -5 -2 5 3 8 7 9 5 0 5
-8 0 -1 -6 -1 -10 -13 -2 -0 11 2 -5 -3 1 -2 1 11 1 4 5 1 6 1 -1 1 -1 -3 -2 -3 -3 -0 12 -1 19 10 -6 3 -2 -2 4 -1 2 -4 -13 -8 6 9
-1 1 -4 -4 -8 -10 -2 1 3 4 12 -2 1 -1 0 8 -2 1 4 5 2 5 2 2 -0 -2 -2 1 -2 -7 -0 -4 -3 -5 5 -0 -2 -2 3 3 -5 -2 0 5 27 16 6
-3 1 -4 -2 -4 -3 3 9 -2 4 6 1 4 4 6 -1 2 1 5 7 5 4 -0 -1 -0 -3 -0 -2 -2 -3 4 -1 33 2 -2 2 -3 6 -1 4 7 2 0 21 -9 -2 6
-5 -2 -3 -3 1 -0 4 0 8 7 4 1 3 -1 1 -3 -0 3 2 4 8 4 -1 1 -0 -4 -0 -2 0 -3 7 -0 -6 -6 0 -3 -5 -1 1 -2 -3 -3 -5 6 8 -4 -4
-4 1 0 -2 2 -0 -3 14 9 8 9 11 8 1 16 -1 2 4 5 0 6 0 -3 2 -2 0 -2 -3 -3 2 1 3 -3 2 23 5 -5 0 1 -2 -3 1 0 -2 -6 -9 -3
2 -0 1 1 1 -7 -3 21 6 8 8 15 1 -5 4 -0 2 2 5 3 5 -1 -6 2 -3 -2 -0 -5 -2 -1 1 -1 -3 -2 -3 0 8 -7 -1 -2 -0 -1 -1 -5 -2 -0 -3
-1 6 0 2 -4 -1 4 8 4 -10 8 -4 2 -8 17 1 3 3 2 3 4 0 -5 2 1 -1 -3 -3 -5 -1 1 4 -0 1 3 1 -3 -0 -2 -0 -3 -4 -5 -1 -3 -2 -2
3 4 2 3 2 1 3 1 6 10 7 -5 3 8 0 2 5 2 3 2 3 -1 -0 -1 0 0 -4 -4 -5 1 -2 -0 1 -2 -1 -2 -1 1 1 -0 0 -1 -2 -2 -1 -2 -4
5 3 1 -3 -0 -1 -1 -5 -3 12 4 -0 1 2 5 2 3 3 1 5 1 -1 -3 -2 -1 -1 -4 -2 -3 0 0 -1 0 -4 -0 1 -2 -3 -2 1 -1 -2 -0 -1 -5 -8 -2
3 -2 -0 -6 -4 -2 -3 -5 -6 6 7 -13 6 6 6 1 1 2 2 7 -0 -0 -1 -2 -1 -4 -3 -4 -4 -4 -4 -6 -5 -4 -2 -3 -0 2 0 -2 -3 -1 -1 -2 -2 -2 -3
3 -4 -3 -4 0 3 -7 -13 8 7 1 10 -1 9 -1 1 1 1 5 5 2 -0 -1 -2 -1 -4 -3 -2 -6 -6 -1 -1 -3 -1 0 -2 -1 -3 -3 -2 -3 -8 -7 -5 -3 -3 -3
2 4 0 -5 -13 -8 -4 -0 2 6 -6 2 3 7 2 1 -1 3 4 2 2 1 -2 -0 0 2 1 -2 -2 0 -4 -4 -4 -5 0 2 -1 2 2 -1 -4 -4 -4 -6 -5 -5 -3
10 -0 -2 -1 -3 -1 2 -5 -9 -9 -1 5 4 -0 -0 -1 0 4 4 1 -1 0 -2 -1 0 1 -1 1 -0 1 -2 -3 -1 -0 0 -4 -1 1 -1 -2 -6 -4 -0 1 2 1 -1
4 -0 2 2 -7 -1 1 -3 -2 1 5 -2 1 1 4 -1 2 3 4 -0 1 -1 -4 -1 -1 1 -2 -2 1 0 -1 -2 -1 -2 -1 -3 -2 -2 -5 -4 5 2 -1 -6 -3 -0 -2
-2 1 5 0 8 13 8 6 0 0 2 0 -0 2 5 1 2 3 2 -1 0 -1 -2 -2 -2 -1 -1 -0 -2 -4 -2 -3 -2 -1 -1 -0 -3 -3 0 -2 -5 4 -0 0 0 4 3
-0 1 0 6 5 5 12 6 -2 -0 1 -2 -0 3 2 1 1 2 2 -2 -0 -1 -2 -1 -1 -3 -2 -1 -3 -3 -4 -3 -1 -2 0 -0 -1 -1 -3 -2 1 4 2 0 -3 -7 -4
-4 1 -2 6 4 5 2 1 1 -1 2 2 2 3 -0 0 1 3 3 -0 0 -0 -1 0 -1 -1 -3 -3 -0 -3 -2 0 -2 -3 -1 -2 -0 -2 -1 1 -3 -3 -2 -1 -1 0 3
-1 0 -4 -0 0 0 -0 -5 -2 0 1 -1 1 2 -1 1 -0 1 3 2 1 -0 -0 1 -1 -1 -1 -1 0 0 -1 -0 0 -1 -2 -4 -2 -1 -2 -1 -2 -1 -1 -2 -1 1 -2
Height
5775 5771 5768 5763 5758 5755 5751 5748 5744 5739 5734 5730 5724 5720 5716 5712 5707 5702 5696 5690 5683 5676 5669 5662 5653 5643 5635 5628 5623 5614 5610 5602 5597 5594 5589 5587 5588 5587 5589 5595 5603 5616 5637 5646 5659 5670 5682
5767 5761 5756 5753 5749 5746 5742 5739 5736 5732 5727 5723 5718 5712 5709 5704 5699 5694 5689 5682 5676 5668 5660 5653 5644 5633 5625 5617 5612 5604 5596 5589 5582 5579 5576 5576 5578 5577 5577 5581 5589 5613 5629 5640 5652 5665 5675
5754 5748 5745 5742 5737 5735 5732 5728 5726 5723 5719 5716 5711 5706 5701 5696 5691 5687 5681 5674 5667 5659 5652 5644 5634 5624 5615 5608 5599 5592 5584 5577 5571 5569 5567 5567 5570 5569 5572 5576 5589 5609 5621 5633 5645 5657 5668
5742 5736 5731 5727 5724 5722 5718 5717 5716 5713 5710 5707 5704 5699 5694 5689 5683 5679 5672 5665 5658 5651 5643 5635 5624 5616 5606 5597 5587 5579 5571 5567 5562 5561 5561 5561 5562 5563 5569 5578 5588 5602 5614 5623 5639 5650 5664
5730 5724 5718 5715 5711 5708 5707 5703 5702 5701 5699 5697 5695 5692 5687 5681 5676 5671 5664 5658 5651 5644 5636 5627 5617 5608 5599 5588 5577 5567 5560 5554 5550 5551 5555 5557 5560 5561 5566 5579 5591 5597 5609 5623 5636 5645 5658
5716 5710 5705 5700 5695 5693 5691 5691 5688 5687 5688 5686 5686 5684 5679 5675 5669 5663 5656 5651 5644 5637 5629 5620 5611 5603 5592 5583 5572 5563 5555 5549 5544 5543 5550 5554 5559 5563 5569 5574 5584 5595 5609 5621 5635 5647 5656
5700 5694 5688 5683 5678 5673 5672 5673 5673 5673 5674 5674 5675 5673 5672 5667 5662 5655 5650 5644 5639 5632 5623 5614 5606 5597 5589 5581 5570 5560 5553 5550 5547 5546 5551 5555 5560 5565 5572 5578 5587 5602 5615 5627 5638 5647 5656
5687 5679 5673 5667 5661 5657 5654 5652 5655 5657 5659 5661 5664 5663 5662 5660 5655 5649 5643 5638 5632 5626 5619 5609 5601 5593 5588 5581 5571 5562 5555 5552 5550 5551 5556 5560 5563 5565 5572 5581 5591 5603 5615 5625 5634 5643 5656
5667 5660 5651 5644 5639 5635 5633 5633 5635 5638 5641 5647 5651 5652 5653 5652 5648 5642 5638 5633 5627 5620 5614 5606 5599 5594 5590 5584 5575 5567 5562 5557 5556 5560 5564 5564 5567 5568 5575 5583 5594 5605 5617 5626 5637 5645 5651
5641 5632 5625 5618 5611 5608 5607 5608 5612 5617 5623 5629 5636 5641 5642 5644 5643 5635 5632 5627 5622 5615 5609 5605 5599 5594 5591 5586 5580 5572 5568 5567 5567 5567 5569 5572 5571 5573 5581 5588 5597 5610 5618 5627 5633 5638 5649
5617 5608 5599 5588 5580 5575 5573 5577 5583 5594 5602 5611 5623 5628 5632 5636 5633 5629 5626 5622 5617 5611 5607 5602 5598 5594 5591 5587 5583 5579 5576 5573 5573 5572 5571 5572 5573 5581 5587 5595 5604 5616 5623 5630 5634 5644 5650
5592 5576 5563 5554 5545 5535 5531 5530 5540 5560 5578 5592 5605 5615 5623 5627 5626 5622 5620 5616 5613 5609 5604 5600 5596 5594 5591 5589 5586 5583 5581 5578 5578 5576 5575 5578 5581 5588 5594 5601 5609 5616 5622 5630 5637 5644 5649
5564 5552 5538 5528 5517 5504 5499 5502 5505 5520 5552 5575 5592 5604 5613 5617 5617 5616 5614 5612 5609 5604 5601 5597 5594 5593 5592 5591 5589 5587 5585 5583 5583 5584 5582 5585 5589 5594 5602 5609 5616 5623 5628 5633 5638 5640 5647
5541 5530 5518 5506 5494 5484 5486 5490 5492 5504 5537 5562 5580 5595 5603 5610 5609 5610 5609 5608 5605 5601 5598 5595 5592 5593 5593 5593 5593 5590 5588 5587 5587 5590 5590 5594 5598 5599 5606 5616 5622 5626 5630 5634 5639 5644 5648
5523 5511 5498 5485 5476 5477 5481 5483 5486 5505 5532 5554 5574 5586 5597 5601 5604 5604 5606 5604 5601 5598 5597 5594 5592 5593 5594 5595 5595 5595 5593 5594 5595 5596 5599 5601 5603 5609 5614 5619 5623 5628 5633 5638 5641 5644 5650
5507 5495 5483 5474 5471 5474 5480 5482 5490 5512 5535 5555 5571 5580 5589 5593 5597 5600 5602 5600 5598 5596 5595 5593 5592 5595 5598 5599 5600 5598 5600 5601 5603 5605 5606 5609 5613 5616 5620 5624 5628 5631 5636 5641 5644 5648 5652
5493 5482 5474 5469 5469 5473 5479 5483 5492 5509 5530 5555 5565 5575 5583 5588 5594 5596 5598 5597 5596 5594 5594 5592 5591 5596 5600 5603 5605 5605 5607 5608 5608 5611 5614 5617 5621 5624 5626 5628 5630 5634 5637 5641 5645 5649 5653
5484 5474 5468 5466 5468 5472 5478 5486 5498 5511 5526 5540 5558 5569 5580 5586 5591 5592 5595 5594 5597 5592 5593 5591 5592 5597 5602 5605 5608 5609 5611 5613 5613 5614 5617 5620 5623 5626 5629 5631 5634 5637 5639 5641 5644 5649 5652
5476 5468 5465 5464 5466 5470 5476 5484 5498 5512 5529 5544 5555 5566 5575 5583 5589 5590 5592 5593 5595 5591 5592 5591 5594 5599 5604 5607 5611 5613 5616 5616 5618 5620 5623 5626 5628 5629 5631 5634 5635 5637 5640 5643 5645 5647 5649
5469 5464 5462 5464 5466 5469 5475 5487 5497 5515 5529 5543 5554 5564 5575 5582 5586 5588 5590 5593 5594 5592 5592 5591 5595 5601 5607 5610 5613 5616 5617 5620 5622 5624 5626 5629 5630 5632 5633 5634 5636 5637 5639 5641 5643 5645 5648
5467 5466 5464 5465 5469 5473 5481 5493 5503 5516 5531 5545 5553 5565 5575 5580 5583 5586 5590 5592 5593 5593 5593 5593 5596 5602 5608 5612 5616 5618 5621 5622 5625 5627 5629 5631 5632 5633 5634 5635 5636 5637 5639 5641 5643 5644 5645
5468 5465 5467 5471 5474 5480 5489 5499 5510 5522 5534 5547 5556 5566 5573 5578 5582 5586 5591 5593 5593 5594 5594 5596 5598 5603 5608 5612 5616 5618 5621 5623 5626 5628 5630 5631 5633 5634 5635 5636 5638 5639 5640 5641 5641 5642 5644
5471 5470 5473 5475 5479 5489 5498 5509 5518 5530 5539 5552 5559 5567 5574 5579 5582 5587 5593 5594 5595 5595 5596 5597 5599 5604 5608 5612 5616 5619 5621 5623 5626 5629 5630 5632 5633 5633 5635 5636 5637 5639 5639 5640 5640 5641 5641
5476 5475 5480 5487 5497 5505 5513 5520 5527 5536 5546 5555 5560 5567 5573 5580 5583 5588 5593 5596 5597 5598 5598 5599 5601 5605 5608 5609 5614 5617 5620 5623 5625 5627 5629 5630 5631 5632 5633 5634 5634 5635 5635 5636 5636 5637 5637
5484 5489 5497 5506 5512 5519 5524 5531 5538 5545 5551 5555 5561 5568 5576 5580 5585 5589 5595 5598 5600 5601 5600 5601 5602 5605 5606 5609 5612 5616 5619 5621 5623 5624 5626 5627 5628 5628 5628 5629 5631 5630 5631 5632 5632 5632 5631
5505 5508 5514 5520 5525 5530 5536 5541 5545 5551 5555 5558 5564 5570 5577 5582 5586 5591 5596 5600 5603 5604 5604 5605 5606 5606 5608 5609 5612 5615 5617 5619 5620 5621 5622 5622 5623 5624 5624 5624 5625 5625 5625 5625 5625 5626 5625
5519 5519 5523 5526 5530 5535 5540 5545 5549 5553 5556 5559 5566 5573 5578 5582 5587 5592 5597 5601 5604 5607 5608 5609 5610 5611 5611 5612 5612 5614 5615 5616 5617 5618 5618 5618 5619 5618 5618 5618 5620 5618 5619 5618 5619 5621 5615
5530 5530 5532 5534 5537 5540 5543 5547 5552 5555 5559 5563 5570 5575 5580 5584 5589 5594 5598 5602 5605 5608 5610 5612 5614 5614 5614 5614 5613 5614 5614 5615 5616 5616 5615 5615 5615 5614 5613 5612 5613 5612 5612 5611 5610 5608 5608
5538 5538 5539 5543 5544 5545 5548 5550 5554 5558 5562 5565 5572 5577 5581 5587 5591 5595 5599 5603 5606 5608 5611 5613 5615 5615 5615 5616 5616 5615 5614 5614 5614 5613 5614 5614 5614 5612 5611 5610 5608 5607 5605 5603 5602 5600 5599